Terminal Aerodrome Forecast
Issued by NWS

Home | Current Version | Previous Version | Text Only | Print | Product List | Glossary On
Versions: 1 2 3 4 5 6 7 8 9 10 11 12 13 14 15 16 17 18 19 20 21 22 23 24 25 26 27 28
000
FTUS45 KGJT 230538
TAFRIL
TAF
KRIL 230538Z 2306/2406 10004KT P6SM VCSH SCT120
      TEMPO 2306/2308 VRB10G18KT -TSRA SCT070 BKN120CB
     FM230900 VRB03KT P6SM SCT120
     FM231900 28008KT P6SM SCT120
     FM240200 14007KT P6SM BKN130=

USA.gov is the U.S. government's official web portal to all federal, state and local government web resources and services.